When you browse on this site, cookies collect data to enhance your experience and personalize the content and advertising you see.
Visit our Privacy Policy to learn more. By continuing to use the site, you agree to this use of cookies and data.
EN

Hourly Weather Horokholyn Lis

Today, 5 July, Sunday

Time Temperature Precipitation Wind Pressure Humidity
00:00 +19°C° 0 mm 1 mps 723 mmHg 98%
01:00 +19°C° 0 mm 1 mps 723 mmHg 98%
02:00 +18°C° 0 mm 1 mps 723 mmHg 99%
03:00 +17°C° 0 mm 2 mps 723 mmHg 99%
04:00 +17°C° 0 mm 2 mps 722 mmHg 99%
05:00 +16°C° 0 mm 1 mps 723 mmHg 99%
06:00 +18°C° 0 mm 1 mps 723 mmHg 99%
07:00 +19°C° 0 mm 1 mps 723 mmHg 98%
08:00 +20°C° 0 mm 1 mps 723 mmHg 96%
09:00 +19°C° 0 mm 0 mps 723 mmHg 95%
10:00 +22°C° 0 mm 1 mps 724 mmHg 93%
11:00 +22°C° 0 mm 1 mps 724 mmHg 91%
12:00 +23°C° 0 mm 2 mps 724 mmHg 89%
13:00 +23°C° 0 mm 2 mps 723 mmHg 85%
14:00 +24°C° 0 mm 2 mps 723 mmHg 86%
15:00 +24°C° 0 mm 2 mps 723 mmHg 86%
16:00 +24°C° 0 mm 2 mps 722 mmHg 85%
17:00 +24°C° 0 mm 1 mps 722 mmHg 84%
18:00 +24°C° 0 mm 2 mps 722 mmHg 86%
19:00 +24°C° 0 mm 1 mps 722 mmHg 89%
20:00 +23°C° 0 mm 1 mps 722 mmHg 94%
21:00 +23°C° 0 mm 1 mps 722 mmHg 86%
22:00 +22°C° 0 mm 1 mps 722 mmHg 87%
23:00 +21°C° 0 mm 1 mps 722 mmHg 92%

Tomorrow, 6 July, Monday

Time Temperature Precipitation Wind Pressure Humidity
00:00 +21°C° 0 mm 1 mps 722 mmHg 91%
01:00 +20°C° 0 mm 1 mps 721 mmHg 90%
02:00 +20°C° 0 mm 1 mps 721 mmHg 87%
03:00 +20°C° 0 mm 1 mps 721 mmHg 86%
04:00 +20°C° 0 mm 1 mps 721 mmHg 87%
05:00 +19°C° 0 mm 1 mps 721 mmHg 86%
06:00 +20°C° 0 mm 1 mps 720 mmHg 84%
07:00 +19°C° 0 mm 0 mps 721 mmHg 87%
08:00 +20°C° 0 mm 0 mps 721 mmHg 87%
09:00 +21°C° 0 mm 0 mps 721 mmHg 88%
10:00 +24°C° 0 mm 1 mps 721 mmHg 88%
11:00 +25°C° 0 mm 1 mps 721 mmHg 86%
12:00 +25°C° 0 mm 2 mps 720 mmHg 84%
13:00 +26°C° 0 mm 2 mps 720 mmHg 84%
14:00 +26°C° 0 mm 2 mps 720 mmHg 84%
15:00 +26°C° 0 mm 3 mps 719 mmHg 83%
16:00 +26°C° 0 mm 3 mps 718 mmHg 83%
17:00 +26°C° 0 mm 3 mps 718 mmHg 82%
18:00 +26°C° 0 mm 2 mps 717 mmHg 81%
19:00 +25°C° 0 mm 1 mps 718 mmHg 87%
20:00 +24°C° 0.1 mm 2 mps 718 mmHg 93%
21:00 +20°C° 3.8 mm 4 mps 717 mmHg 96%
22:00 +20°C° 0.1 mm 2 mps 717 mmHg 96%
23:00 +21°C° 0 mm 1 mps 717 mmHg 90%

Day after tomorrow, 7 July, Tuesday

Time Temperature Precipitation Wind Pressure Humidity
00:00 +21°C° 0 mm 1 mps 717 mmHg 88%
01:00 +20°C° 0 mm 2 mps 717 mmHg 91%
02:00 +19°C° 0 mm 3 mps 717 mmHg 100%
03:00 +19°C° 0 mm 3 mps 717 mmHg 100%
04:00 +19°C° 0 mm 4 mps 717 mmHg 100%
05:00 +19°C° 0 mm 4 mps 717 mmHg 100%
06:00 +18°C° 0.1 mm 4 mps 717 mmHg 100%
07:00 +17°C° 0.2 mm 6 mps 717 mmHg 100%
08:00 +16°C° 0.5 mm 6 mps 718 mmHg 100%
09:00 +14°C° 0.3 mm 6 mps 718 mmHg 99%
10:00 +14°C° 0.5 mm 6 mps 718 mmHg 100%
11:00 +14°C° 0.1 mm 6 mps 718 mmHg 98%
12:00 +12°C° 0.1 mm 8 mps 719 mmHg 96%
13:00 +12°C° 0.4 mm 7 mps 718 mmHg 93%
14:00 +13°C° 0 mm 6 mps 719 mmHg 91%
15:00 +13°C° 0 mm 6 mps 719 mmHg 96%
16:00 +11°C° 0 mm 6 mps 719 mmHg 97%
17:00 +11°C° 0 mm 6 mps 719 mmHg 97%
18:00 +12°C° 0 mm 5 mps 719 mmHg 99%
19:00 +10°C° 0.1 mm 5 mps 719 mmHg 100%
20:00 +10°C° 0.5 mm 5 mps 720 mmHg 100%
21:00 +11°C° 0.8 mm 4 mps 720 mmHg 100%
22:00 +11°C° 2.2 mm 4 mps 720 mmHg 100%
23:00 +11°C° 1.8 mm 4 mps 720 mmHg 100%

8 July, Wednesday

Time Temperature Precipitation Wind Pressure Humidity
00:00 +11°C° 2.1 mm 3 mps 721 mmHg 100%
01:00 +11°C° 1.5 mm 3 mps 720 mmHg 100%
02:00 +11°C° 0.7 mm 3 mps 720 mmHg 100%
03:00 +12°C° 0 mm 4 mps 720 mmHg 100%
04:00 +12°C° 0 mm 4 mps 720 mmHg 100%
05:00 +12°C° 0 mm 4 mps 720 mmHg 100%
06:00 +12°C° 0 mm 4 mps 721 mmHg 100%
07:00 +12°C° 0 mm 4 mps 721 mmHg 100%
08:00 +12°C° 0 mm 4 mps 721 mmHg 100%
09:00 +13°C° 0 mm 4 mps 722 mmHg 99%
10:00 +14°C° 0 mm 4 mps 722 mmHg 98%
11:00 +15°C° 0 mm 4 mps 722 mmHg 96%
12:00 +15°C° 0 mm 4 mps 723 mmHg 93%
13:00 +18°C° 0 mm 4 mps 722 mmHg 87%
14:00 +17°C° 0.3 mm 5 mps 722 mmHg 86%
15:00 +19°C° 0 mm 5 mps 722 mmHg 84%
16:00 +17°C° 0 mm 5 mps 722 mmHg 84%
17:00 +18°C° 0 mm 4 mps 722 mmHg 87%
18:00 +18°C° 0 mm 4 mps 722 mmHg 84%
19:00 +18°C° 0 mm 3 mps 722 mmHg 86%
20:00 +17°C° 0 mm 2 mps 722 mmHg 92%
21:00 +16°C° 0 mm 1 mps 723 mmHg 93%
22:00 +15°C° 0 mm 2 mps 723 mmHg 95%
23:00 +15°C° 0 mm 2 mps 723 mmHg 96%

9 July, Thursday

Time Temperature Precipitation Wind Pressure Humidity
00:00 +14°C° 0 mm 2 mps 723 mmHg 96%
01:00 +14°C° 0 mm 2 mps 723 mmHg 96%
02:00 +14°C° 0 mm 2 mps 723 mmHg 95%
03:00 +13°C° 0 mm 2 mps 723 mmHg 94%
04:00 +13°C° 0 mm 2 mps 723 mmHg 93%
05:00 +13°C° 0 mm 2 mps 723 mmHg 93%
06:00 +14°C° 0 mm 2 mps 723 mmHg 93%
07:00 +16°C° 0 mm 2 mps 724 mmHg 92%
08:00 +17°C° 0 mm 2 mps 724 mmHg 83%
09:00 +19°C° 0 mm 2 mps 724 mmHg 79%
10:00 +20°C° 0 mm 2 mps 725 mmHg 76%
11:00 +20°C° 0 mm 2 mps 725 mmHg 76%
12:00 +22°C° 0 mm 1 mps 725 mmHg 79%
13:00 +22°C° 0 mm 1 mps 725 mmHg 81%
14:00 +19°C° 2.3 mm 2 mps 725 mmHg 92%
15:00 +21°C° 0.1 mm 3 mps 725 mmHg 87%
16:00 +21°C° 0 mm 3 mps 724 mmHg 81%
17:00 +21°C° 0 mm 3 mps 725 mmHg 84%
18:00 +21°C° 0.1 mm 2 mps 725 mmHg 84%
19:00 +21°C° 0.1 mm 1 mps 725 mmHg 89%
20:00 +19°C° 0 mm 0 mps 725 mmHg 93%
21:00 +18°C° 0 mm 0 mps 725 mmHg 92%
22:00 +18°C° 0 mm 0 mps 725 mmHg 92%
23:00 +18°C° 0 mm 0 mps 725 mmHg 93%

10 July, Friday

Time Temperature Precipitation Wind Pressure Humidity
00:00 +17°C° 0 mm 0 mps 725 mmHg 95%
01:00 +17°C° 0 mm 0 mps 725 mmHg 96%
02:00 +16°C° 0 mm 0 mps 725 mmHg 97%
03:00 +16°C° 0 mm 0 mps 725 mmHg 99%
04:00 +15°C° 0 mm 0 mps 724 mmHg 100%
05:00 +15°C° 0 mm 0 mps 724 mmHg 100%
06:00 +16°C° 0 mm 1 mps 724 mmHg 100%
07:00 +16°C° 0 mm 0 mps 724 mmHg 100%
08:00 +19°C° 0 mm 1 mps 724 mmHg 99%
09:00 +20°C° 0 mm 2 mps 725 mmHg 96%
10:00 +21°C° 0 mm 2 mps 725 mmHg 94%
11:00 +21°C° 0 mm 2 mps 725 mmHg 93%
12:00 +22°C° 0 mm 3 mps 725 mmHg 92%
13:00 +22°C° 0 mm 3 mps 724 mmHg 88%
14:00 +24°C° 0 mm 3 mps 724 mmHg 89%
15:00 +24°C° 0 mm 3 mps 724 mmHg 85%
16:00 +23°C° 0.1 mm 4 mps 723 mmHg 87%
17:00 +23°C° 0.2 mm 4 mps 723 mmHg 89%
18:00 +23°C° 0.3 mm 4 mps 723 mmHg 92%
19:00 +22°C° 0 mm 4 mps 723 mmHg 94%
20:00 +21°C° 0 mm 3 mps 723 mmHg 95%
21:00 +21°C° 0 mm 2 mps 723 mmHg 97%
22:00 +20°C° 0 mm 2 mps 722 mmHg 98%
23:00 +20°C° 0 mm 1 mps 722 mmHg 99%
Show more